Monroe, MI

9:17 PM EST on February 24, 2017 (GMT -0500)
Custer

Weather History for KTTF - January, 2014

Change the Weather History Date:

Friday, January 17, 2014

  Actual Average Record
Temperature  
Mean Temperature 22 °F -  
Max Temperature 30 °F 32 °F 65 °F (1952)
Min Temperature 15 °F 15 °F -15 °F (1982)
Degree Days  
Heating Degree Days 42    
Moisture  
Dew Point 19 °F    
Average Humidity 78    
Maximum Humidity 93    
Minimum Humidity 69    
Precipitation  
Precipitation 0.00 in - - ()
Sea Level Pressure  
Sea Level Pressure 29.77 in    
Wind  
Wind Speed 9 mph (WSW)    
Max Wind Speed 18 mph    
Max Gust Speed 23 mph    
Visibility 8 miles    
Events Snow    
Averages and records for this station are not official NWS values.
T = Trace of Precipitation, MM = Missing Value Source: NWS Daily Summary

Daily Weather History Graph

Daily Weather History Graph

Search for Another Location

Airport or City:

Trip Planner

Search our weather history database for the weather conditions in past years. The results will help you decide how hot, cold, wet, or windy it might be!

Date:

Astronomy

Jan. 17, 2014 Rise Set
Actual Time 7:58 AM EST 5:30 PM EST
Civil Twilight 7:27 AM EST 6:00 PM EST
Nautical Twilight 6:53 AM EST 6:34 PM EST
Astronomical Twilight 6:19 AM EST 7:08 PM EST
Moon 7:18 PM EST (1/17) 8:23 AM EST (1/17)
Length of Visible Light 10h 33m
Length of Day
9h 31m
Full, 98% of the Moon is Illuminated
Jan 17
Full
Jan 24
Last Quarter
Jan 30
New
Feb 6
First Quarter
Feb 14
Full

Hourly Weather History & Observations

Time (EST) Temp. Windchill Dew Point Humidity Pressure Visibility Wind Dir Wind Speed Gust Speed Precip Events Conditions
12:16 AM 28.4 °F 19.1 °F 26.6 °F 93% 29.63 in 4.0 mi SSW 10.4 mph - N/A Snow Light Snow
12:37 AM 28.4 °F 19.7 °F 26.6 °F 93% 29.62 in 3.0 mi SSW 9.2 mph - N/A Snow Light Snow
12:57 AM 28.4 °F 19.7 °F 26.6 °F 93% 29.62 in 2.5 mi SSW 9.2 mph - N/A Snow Light Snow
1:12 AM 28.4 °F 19.7 °F 26.6 °F 93% 29.62 in 3.0 mi SSW 9.2 mph - N/A Snow Light Snow
1:32 AM 28.4 °F 19.7 °F 26.6 °F 93% 29.62 in 4.0 mi SSW 9.2 mph - N/A Snow Light Snow
1:52 AM 28.4 °F 20.4 °F 26.6 °F 93% 29.63 in 10.0 mi SW 8.1 mph - N/A   Overcast
2:12 AM 28.4 °F 19.7 °F 26.6 °F 93% 29.64 in 10.0 mi SW 9.2 mph - N/A   Overcast
2:32 AM 30.2 °F 21.3 °F 24.8 °F 80% 29.64 in 10.0 mi SW 10.4 mph - N/A   Overcast
2:52 AM 30.2 °F 20.8 °F 24.8 °F 80% 29.64 in 10.0 mi SW 11.5 mph 19.6 mph N/A   Overcast
3:12 AM 28.4 °F 18.0 °F 23.0 °F 80% 29.65 in 10.0 mi SW 12.7 mph 19.6 mph N/A   Overcast
3:33 AM 28.4 °F 17.5 °F 21.2 °F 74% 29.66 in 10.0 mi WSW 13.8 mph - N/A   Overcast
3:53 AM 28.4 °F 17.5 °F 21.2 °F 74% 29.66 in 10.0 mi WSW 13.8 mph - N/A   Overcast
4:13 AM 26.6 °F 15.2 °F 21.2 °F 80% 29.67 in 10.0 mi SW 13.8 mph 18.4 mph N/A   Mostly Cloudy
4:33 AM 26.6 °F 15.7 °F 19.4 °F 74% 29.68 in 10.0 mi SW 12.7 mph - N/A   Mostly Cloudy
4:53 AM 26.6 °F 14.7 °F 19.4 °F 74% 29.68 in 10.0 mi SW 15.0 mph 18.4 mph N/A   Mostly Cloudy
5:13 AM 26.6 °F 15.2 °F 17.6 °F 69% 29.69 in 10.0 mi WSW 13.8 mph - N/A   Overcast
5:33 AM 24.8 °F 12.9 °F 17.6 °F 74% 29.70 in 10.0 mi WSW 13.8 mph - N/A   Overcast
5:53 AM 24.8 °F 14.6 °F 15.8 °F 69% 29.71 in 10.0 mi SW 10.4 mph - N/A   Scattered Clouds
6:14 AM 21.2 °F 10.1 °F 15.8 °F 80% 29.72 in 10.0 mi WSW 10.4 mph - N/A   Clear
6:34 AM 21.2 °F 10.1 °F 15.8 °F 80% 29.72 in 10.0 mi SW 10.4 mph - N/A   Clear
6:54 AM 21.2 °F 10.1 °F 15.8 °F 80% 29.73 in 10.0 mi SW 10.4 mph - N/A   Scattered Clouds
7:14 AM 21.2 °F 11.7 °F 15.8 °F 80% 29.73 in 10.0 mi SW 8.1 mph - N/A   Mostly Cloudy
7:34 AM 21.2 °F 11.7 °F 15.8 °F 80% 29.74 in 10.0 mi SW 8.1 mph - N/A   Overcast
7:54 AM 21.2 °F 13.6 °F 15.8 °F 80% 29.74 in 10.0 mi WSW 5.8 mph - N/A   Overcast
8:14 AM 21.2 °F 14.9 °F 15.8 °F 80% 29.74 in 10.0 mi SW 4.6 mph - N/A   Overcast
8:34 AM 21.2 °F 14.9 °F 15.8 °F 80% 29.74 in 10.0 mi SW 4.6 mph - N/A   Overcast
8:54 AM 23.0 °F - 15.8 °F 74% 29.75 in 10.0 mi Calm Calm - N/A   Mostly Cloudy
9:14 AM 23.0 °F - 15.8 °F 74% 29.76 in 10.0 mi Calm Calm - N/A   Overcast
9:34 AM 24.8 °F 19.1 °F 15.8 °F 69% 29.77 in 10.0 mi SW 4.6 mph - N/A   Mostly Cloudy
9:54 AM 24.8 °F - 15.8 °F 69% 29.77 in 10.0 mi Calm Calm - N/A   Overcast
10:15 AM 24.8 °F 20.5 °F 17.6 °F 74% 29.77 in 10.0 mi SSW 3.5 mph - N/A   Overcast
10:35 AM 24.8 °F 17.9 °F 17.6 °F 74% 29.78 in 10.0 mi WSW 5.8 mph - N/A   Overcast
10:55 AM 26.6 °F - 17.6 °F 69% 29.77 in 10.0 mi Calm Calm - N/A   Overcast
11:15 AM 26.6 °F - 17.6 °F 69% 29.78 in 10.0 mi Calm Calm - N/A   Overcast
11:35 AM 26.6 °F 22.6 °F 17.6 °F 69% 29.77 in 10.0 mi SW 3.5 mph - N/A   Overcast
11:55 AM 26.6 °F - 17.6 °F 69% 29.77 in 10.0 mi Calm Calm - N/A   Overcast
12:15 PM 28.4 °F 24.6 °F 19.4 °F 69% 29.76 in 10.0 mi WNW 3.5 mph - N/A   Overcast
12:36 PM 28.4 °F - 19.4 °F 69% 29.76 in 10.0 mi Calm Calm - N/A   Overcast
12:56 PM 28.4 °F - 19.4 °F 69% 29.75 in 10.0 mi Calm Calm - N/A   Overcast
1:16 PM 28.4 °F - 19.4 °F 69% 29.75 in 10.0 mi Calm Calm - N/A   Overcast
1:36 PM 28.4 °F - 19.4 °F 69% 29.75 in 10.0 mi Calm Calm - N/A   Overcast
1:56 PM 30.2 °F - 21.2 °F 69% 29.74 in 10.0 mi Calm Calm - N/A   Overcast
2:16 PM 30.2 °F - 21.2 °F 69% 29.74 in 10.0 mi Calm Calm - N/A   Overcast
2:36 PM 30.2 °F - 21.2 °F 69% 29.75 in 10.0 mi Calm Calm - N/A   Overcast
2:56 PM 28.4 °F 22.2 °F 21.2 °F 74% 29.75 in 7.0 mi WSW 5.8 mph - N/A   Overcast
3:16 PM 30.2 °F 22.6 °F 21.2 °F 69% 29.76 in 10.0 mi West 8.1 mph - N/A   Overcast
3:36 PM 28.4 °F 22.2 °F 21.2 °F 74% 29.76 in 10.0 mi West 5.8 mph - N/A   Overcast
3:56 PM 28.4 °F 22.2 °F 21.2 °F 74% 29.77 in 10.0 mi West 5.8 mph - N/A   Overcast
4:17 PM 28.4 °F 19.1 °F 23.0 °F 80% 29.78 in 10.0 mi WSW 10.4 mph - N/A   Overcast
4:32 PM 26.6 °F 16.2 °F 23.0 °F 86% 29.79 in 10.0 mi WSW 11.5 mph - N/A   Overcast
4:52 PM 26.6 °F 17.5 °F 23.0 °F 86% 29.80 in 7.0 mi WSW 9.2 mph - N/A Snow Light Snow
5:12 PM 26.6 °F 16.8 °F 23.0 °F 86% 29.80 in 7.0 mi WSW 10.4 mph - N/A Snow Light Snow
5:32 PM 26.6 °F 15.7 °F 23.0 °F 86% 29.81 in 3.0 mi West 12.7 mph 18.4 mph N/A Snow Light Snow
5:52 PM 26.6 °F 16.2 °F 21.2 °F 80% 29.82 in 10.0 mi West 11.5 mph 18.4 mph N/A   Overcast
6:12 PM 26.6 °F 15.7 °F 21.2 °F 80% 29.83 in 10.0 mi West 12.7 mph - N/A   Overcast
6:32 PM 26.6 °F 15.2 °F 21.2 °F 80% 29.85 in 10.0 mi West 13.8 mph - N/A   Overcast
6:53 PM 24.8 °F 12.9 °F 21.2 °F 86% 29.85 in 7.0 mi WSW 13.8 mph - N/A Snow Light Snow
7:13 PM 23.0 °F 9.6 °F 19.4 °F 86% 29.86 in 5.0 mi WSW 16.1 mph - N/A Snow Light Snow
7:33 PM 21.2 °F 6.4 °F 17.6 °F 86% 29.87 in 5.0 mi WSW 18.4 mph 21.9 mph N/A Snow Light Snow
7:53 PM 21.2 °F 8.3 °F 17.6 °F 86% 29.88 in 4.0 mi WSW 13.8 mph - N/A Snow Light Snow
8:13 PM 19.4 °F 5.0 °F 17.6 °F 93% 29.89 in 2.5 mi WSW 16.1 mph 19.6 mph N/A Snow Light Snow
8:33 PM 19.4 °F 5.0 °F 15.8 °F 86% 29.89 in 2.0 mi WSW 16.1 mph 20.7 mph N/A Snow Light Snow
8:53 PM 19.4 °F 4.5 °F 15.8 °F 86% 29.89 in 4.0 mi WSW 17.3 mph 23.0 mph N/A Snow Light Snow
9:13 PM 17.6 °F 2.2 °F 14.0 °F 86% 29.90 in 4.0 mi WSW 17.3 mph 23.0 mph N/A Snow Light Snow
9:33 PM 17.6 °F 1.7 °F 12.2 °F 79% 29.90 in 5.0 mi WSW 18.4 mph - N/A Snow Light Snow
9:53 PM 17.6 °F 2.7 °F 12.2 °F 79% 29.91 in 5.0 mi WSW 16.1 mph - N/A Snow Light Snow
10:13 PM 17.6 °F 3.2 °F 12.2 °F 79% 29.91 in 7.0 mi WSW 15.0 mph 21.9 mph N/A Snow Light Snow
10:34 PM 17.6 °F 1.7 °F 12.2 °F 79% 29.91 in 7.0 mi WSW 18.4 mph 23.0 mph N/A Snow Light Snow
10:54 PM 17.6 °F 3.2 °F 10.4 °F 73% 29.92 in 10.0 mi WSW 15.0 mph - N/A Snow Light Snow
11:14 PM 17.6 °F 3.7 °F 10.4 °F 73% 29.92 in 10.0 mi West 13.8 mph 20.7 mph N/A Snow Light Snow
11:34 PM 15.8 °F 2.7 °F 10.4 °F 79% 29.92 in 10.0 mi WSW 11.5 mph - N/A Snow Light Snow
11:54 PM 15.8 °F 2.1 °F 10.4 °F 79% 29.92 in 3.0 mi West 12.7 mph 18.4 mph N/A Snow Light Snow